Home   Weather   Pullman   Past weeks

Flag for USA Past Weather in Pullman, Washington, USA — Yesterday and Last 2 Weeks

Now
58 °F

Clear.


Feels Like: 58 °F
Forecast: 52 / 83 °F
Wind: No wind

Location: Pullman / Moscow Regional Airport

Current Time: Aug 18, 2017 at 12:05:48 am

Latest Report: Aug 17, 2017 at 10:53 pm


Visibility: 8 mi

Pressure: 30.06 "Hg (27.61 "Hg at 715m altitude)

Humidity: 50%

Dew Point: 39 °F

Location of PullmanLocation

Past Weather in Pullman — Graph

°F

Pullman Temperature Yesterday

Maximum temperature yesterday: 82 °F (at 4:53 pm)
Minimum temperature yesterday: 58 °F (at 1:53 am)
Average temperature yesterday: 69 °F

High & Low Weather Summary for the Past Weeks

 TemperatureHumidityPressure
High95 °F (Aug 3, 3:53 pm)87% (Aug 13, 9:53 am)30.11 "Hg (Aug 13, 9:53 am)
Low47 °F (Aug 16, 5:53 am)12% (Aug 7, 3:53 pm)29.77 "Hg (Aug 4, 6:53 pm)
Average73 °F39%29.92 "Hg
* Reported Aug 2 10:53 pm — Aug 17 10:53 pm, Pullman. Weather by CustomWeather, © 2017

Note: Actual official high and low records may vary slightly from our data, if they occured in-between our weather recording intervals... More about our weather records

Advertising

Pullman Weather History for the Previous 24 Hours

Scroll right to see more
 ConditionsComfort  
Time TempWeatherWind HumidityBarometerVisibility
10:53 pm
Thu, Aug 17
58 °FClear.No wind50%30.06 "Hg8 mi
9:53 pm63 °FClear.No wind38%30.06 "Hg8 mi
8:53 pm65 °FClear.No wind37%30.05 "Hg8 mi
7:53 pm73 °FSunny.5 mph28%30.03 "Hg10 mi
6:53 pm78 °FSunny.7 mph25%30.03 "Hg10 mi
5:53 pm81 °FSunny.N/A27%30.03 "Hg10 mi
4:53 pm82 °FSunny.9 mph26%30.04 "Hg10 mi
3:53 pm81 °FSunny.7 mph26%30.05 "Hg10 mi
2:53 pm80 °FSunny.6 mph28%30.08 "Hg10 mi
1:53 pm79 °FSunny.6 mph29%30.08 "Hg10 mi
12:53 pm78 °FSunny.9 mph32%30.09 "Hg10 mi
11:53 am76 °FSunny.3 mph39%30.10 "Hg10 mi
10:53 am74 °FSunny.10 mph41%30.11 "Hg10 mi
9:53 am71 °FSunny.9 mph47%30.10 "Hg10 mi
8:53 am69 °FSunny.10 mph51%30.09 "Hg10 mi
7:53 am66 °FSunny.9 mph56%30.07 "Hg10 mi
6:53 am61 °FSunny.3 mph65%30.06 "Hg6 mi
5:53 am60 °FSunny.7 mph62%30.03 "Hg10 mi
4:53 am63 °FClear.13 mph58%30.01 "Hg10 mi
3:53 am64 °FClear.10 mph54%30.00 "Hg10 mi
2:53 am58 °FClear.No wind54%29.99 "Hg10 mi
1:53 am58 °FClear.No wind51%29.98 "Hg10 mi
12:53 am59 °FPassing clouds.No wind49%29.98 "Hg10 mi
Weather by CustomWeather, © 2017

See weather overviewHow to use our weather pages